| time (UTC) | temp F | wind direction | speed knots | gust knots | rain 1hr in | rain 24hr in | rain mn in | humidity % | barometer mb |
| 20260502181533 | 82 | 99 | 7.0 | 12.2 | 0.00 | 0.00 | 0.00 | 10 | 1015.9 |
| 20260502163041 | 78 | 243 | 1.7 | 3.5 | 0.00 | 0.00 | 0.00 | 12 | 1016.7 |
| 20260502161556 | 77 | 182 | 0.0 | 2.6 | 0.00 | 0.00 | 0.00 | 13 | 1016.7 |
| 20260502151536 | 66 | 210 | 0.9 | 1.7 | 0.00 | 0.00 | 0.00 | 17 | 1016.5 |
| 20260502123108 | 47 | 67 | 0.9 | 1.7 | 0.00 | 0.00 | 0.00 | 29 | 1015.4 |
| 20260502121537 | 48 | 80 | 0.0 | 0.9 | 0.00 | 0.00 | 0.00 | 28 | 1015.3 |
| 20260502114537 | 49 | 0 | 0.0 | 2.6 | 0.00 | 0.00 | 0.00 | 28 | 1015.1 |
| 20260502113038 | 49 | 116 | 0.0 | 0.9 | 0.00 | 0.00 | 0.00 | 27 | 1015.3 |
| 20260502111537 | 49 | 0 | 0.0 | 0.9 | 0.00 | 0.00 | 0.00 | 27 | 1015.2 |
| 20260502110045 | 50 | 336 | 0.0 | 0.9 | 0.00 | 0.00 | 0.00 | 27 | 1015.2 |
| 20260502104541 | 50 | 65 | 0.9 | 1.7 | 0.00 | 0.00 | 0.00 | 26 | 1015.1 |
| 20260502103034 | 49 | 0 | 0.0 | 0.9 | 0.00 | 0.00 | 0.00 | 26 | 1014.9 |
| 20260502101545 | 50 | 49 | 1.7 | 1.7 | 0.00 | 0.00 | 0.00 | 26 | 1014.9 |
| 20260502071534 | 62 | 0 | 0.0 | 0.9 | 0.00 | 0.00 | 0.00 | 19 | 1015.0 |
| 20260502070032 | 64 | 252 | 0.9 | 2.6 | 0.00 | 0.00 | 0.00 | 18 | 1014.9 |
| 20260502064538 | 64 | 146 | 1.7 | 3.5 | 0.00 | 0.00 | 0.00 | 18 | 1015.0 |
| 20260502063051 | 63 | 0 | 0.0 | 0.9 | 0.00 | 0.00 | 0.00 | 18 | 1014.8 |
| 20260502061536 | 65 | 0 | 0.0 | 1.7 | 0.00 | 0.00 | 0.00 | 17 | 1014.8 |
| 20260502060034 | 65 | 259 | 0.0 | 0.9 | 0.00 | 0.00 | 0.00 | 18 | 1014.6 |
| 20260502054534 | 66 | 248 | 0.0 | 1.7 | 0.00 | 0.00 | 0.00 | 17 | 1014.5 |
| 20260502053038 | 65 | 238 | 0.0 | 1.7 | 0.00 | 0.00 | 0.00 | 18 | 1014.4 |
| 20260502051536 | 67 | 0 | 0.0 | 0.9 | 0.00 | 0.00 | 0.00 | 17 | 1014.3 |
| 20260502050038 | 68 | 253 | 0.0 | 7.0 | 0.00 | 0.00 | 0.00 | 17 | 1014.4 |
| 20260502044533 | 69 | 0 | 0.0 | 0.9 | 0.00 | 0.00 | 0.00 | 16 | 1014.0 |
| 20260502043032 | 69 | 81 | 0.0 | 2.6 | 0.00 | 0.00 | 0.00 | 16 | 1013.9 |
| 20260502041532 | 67 | 65 | 0.9 | 2.6 | 0.00 | 0.00 | 0.00 | 17 | 1013.7 |
| 20260502040037 | 70 | 43 | 2.6 | 7.0 | 0.00 | 0.00 | 0.00 | 16 | 1013.6 |
| 20260502034538 | 72 | 23 | 3.5 | 7.0 | 0.00 | 0.00 | 0.00 | 15 | 1013.4 |
| 20260502033044 | 73 | 11 | 2.6 | 3.5 | 0.00 | 0.00 | 0.00 | 14 | 1013.2 |
| 20260502031533 | 72 | 351 | 1.7 | 4.3 | 0.00 | 0.00 | 0.00 | 14 | 1013.0 |
| 20260502030036 | 73 | 43 | 2.6 | 3.5 | 0.00 | 0.00 | 0.00 | 14 | 1012.8 |
| 20260502024540 | 75 | 52 | 4.3 | 7.0 | 0.00 | 0.00 | 0.00 | 14 | 1012.7 |
| 20260502023035 | 77 | 46 | 4.3 | 8.7 | 0.00 | 0.00 | 0.00 | 13 | 1012.6 |
| 20260502021536 | 79 | 44 | 4.3 | 9.6 | 0.00 | 0.00 | 0.00 | 12 | 1012.4 |
| 20260502020032 | 80 | 51 | 5.2 | 9.6 | 0.00 | 0.00 | 0.00 | 12 | 1012.4 |
| 20260502014534 | 81 | 42 | 7.8 | 13.0 | 0.00 | 0.00 | 0.00 | 12 | 1012.2 |
| 20260502013037 | 82 | 12 | 5.2 | 10.4 | 0.00 | 0.00 | 0.00 | 12 | 1012.2 |
| 20260502011533 | 83 | 28 | 2.6 | 9.6 | 0.00 | 0.00 | 0.00 | 12 | 1012.2 |
| 20260502010048 | 83 | 340 | 7.0 | 14.8 | 0.00 | 0.00 | 0.00 | 11 | 1012.2 |
| 20260502004552 | 83 | 306 | 5.2 | 13.0 | 0.00 | 0.00 | 0.00 | 12 | 1012.2 |
| 20260502003035 | 83 | 26 | 8.7 | 12.2 | 0.00 | 0.00 | 0.00 | 12 | 1012.3 |
| 20260502001535 | 83 | 317 | 3.5 | 11.3 | 0.00 | 0.00 | 0.00 | 12 | 1012.2 |
| 20260502000033 | 83 | 317 | 10.4 | 14.8 | 0.00 | 0.00 | 0.00 | 12 | 1012.6 |
| 20260501234536 | 83 | 25 | 6.1 | 13.0 | 0.00 | 0.00 | 0.00 | 12 | 1012.6 |
| 20260501233034 | 83 | 272 | 7.0 | 11.3 | 0.00 | 0.00 | 0.00 | 12 | 1012.5 |
| 20260501231533 | 83 | 339 | 7.8 | 15.6 | 0.00 | 0.00 | 0.00 | 12 | 1012.8 |
| 20260501230032 | 83 | 331 | 3.5 | 13.9 | 0.00 | 0.00 | 0.00 | 12 | 1012.8 |
| 20260501224533 | 81 | 35 | 3.5 | 11.3 | 0.00 | 0.00 | 0.00 | 13 | 1013.0 |
| 20260501223033 | 82 | 319 | 5.2 | 13.0 | 0.00 | 0.00 | 0.00 | 12 | 1013.2 |
| 20260501221534 | 83 | 291 | 8.7 | 16.5 | 0.00 | 0.00 | 0.00 | 12 | 1013.4 |
| 20260501220312 | 83 | 306 | 7.8 | 13.9 | 0.00 | 0.00 | 0.00 | 12 | 1013.5 |
| 20260501220038 | 83 | 306 | 7.8 | 13.9 | 0.00 | 0.00 | 0.00 | 12 | 1013.5 |
| 20260501214532 | 83 | 301 | 8.7 | 18.2 | 0.00 | 0.00 | 0.00 | 12 | 1013.6 |
| 20260501213046 | 82 | 291 | 7.8 | 18.2 | 0.00 | 0.00 | 0.00 | 12 | 1013.6 |
| 20260501211532 | 83 | 341 | 6.1 | 19.1 | 0.00 | 0.00 | 0.00 | 13 | 1014.0 |
| 20260501210040 | 82 | 308 | 6.1 | 14.8 | 0.00 | 0.00 | 0.00 | 12 | 1014.1 |
| 20260501204536 | 82 | 300 | 7.8 | 16.5 | 0.00 | 0.00 | 0.00 | 12 | 1014.1 |
| 20260501203032 | 82 | 302 | 7.8 | 16.5 | 0.00 | 0.00 | 0.00 | 13 | 1014.1 |
| 20260501201533 | 82 | 323 | 8.7 | 13.0 | 0.00 | 0.00 | 0.00 | 13 | 1014.4 |
| 20260501200032 | 81 | 307 | 7.0 | 13.9 | 0.00 | 0.00 | 0.00 | 14 | 1014.5 |
| 20260501194539 | 82 | 304 | 7.8 | 13.9 | 0.00 | 0.00 | 0.00 | 14 | 1014.5 |
| 20260501193034 | 81 | 316 | 6.1 | 15.6 | 0.00 | 0.00 | 0.00 | 15 | 1014.4 |
| 20260501191537 | 81 | 289 | 7.8 | 19.1 | 0.00 | 0.00 | 0.00 | 15 | 1014.6 |
| 20260501190031 | 80 | 316 | 1.7 | 7.8 | 0.00 | 0.00 | 0.00 | 16 | 1015.0 |
| 20260501184534 | 79 | 209 | 2.6 | 7.8 | 0.00 | 0.00 | 0.00 | 16 | 1015.0 |
| 20260501183035 | 79 | 265 | 7.8 | 13.0 | 0.00 | 0.00 | 0.00 | 16 | 1015.1 |